Content
SEND FEEDBACK

Daily
Averages
Monthly
Summary
United States of America

JACKSONVILLE, VERMONT


Home > North America > United States > Vermont
Elevation: 800 feet     Latitude: 42 44N     Longitude: 072 44W

WEATHER
 
SELECT A DAY
Number of Records: 200,070;   Date Range: 10/28/95 - 10/29/14
 
SHARE

PRINT THIS DATA

[ ← Previous Day ]
WEATHER ALMANAC - JUNE 7, 2014
[ Next Day → ]
[ °C ]   °F
Weather ElementAverageHighLow
Temperature59.5 °F79 °F (3:52 pm)46.9 °F (4:38 am)
Dewpoint50.8 °F57 °F (8:52 pm)46 °F (4:38 am)
Humidity78.3 %100 % (6:52 am)36 % (4:52 pm)
Barometer29.97 in30.01 in (6:52 am)29.91 in (5:52 pm)
Wind Speed1.4 mph6.9 mph (4:52 pm)
Weather ElementAverage
Visibility6.9 mi
Wind DirectionNNE (25.4 °)

Weather ElementTotal
Precipitation---
Heating Degree Days2.1 (Base 65)
Growing Degree Days13 (Base 50)
Averaged from 28 records on June 7, 2014
WEATHER CONDITIONS BREAKOUT
WIND DIRECTION BREAKOUT
WEATHER BY HOUR - JUNE 7, 2014
[ °C ]   °F
Local TimeTemperatureDewpointHumidityBarometerVisibilityWind DirectionWind SpeedGust SpeedPrecipitationEventsConditions
1:52 AM52.0 °F50.0 °F93 %29.97 in10.0 miCalmClear
2:52 AM48.9 °F48.0 °F97 %29.97 in10.0 miCalmClear
3:52 AM48.0 °F46.9 °F96 %29.98 in10.0 miESE (110°)3.5 mphClear
4:38 AM46.9 °F46.0 °F97 %29.98 in10.0 miCalmScattered Clouds
5:04 AM46.9 °F46.0 °F97 %29.98 in1.8 miCalmOvercast
5:08 AM48.0 °F46.9 °F96 %29.98 in0.8 miCalmOvercast
5:17 AM48.0 °F46.9 °F96 %29.98 in0.2 miCalmFogFog
5:34 AM48.0 °F46.9 °F96 %29.99 in1.0 miCalmMist
5:44 AM48.0 °F46.9 °F96 %29.99 in0.2 miCalmFogFog
5:52 AM48.0 °F46.9 °F96 %30.00 in0.2 miCalmFogFog
6:52 AM48.9 °F48.9 °F100 %30.01 in0.2 miCalmFogFog
6:57 AM48.9 °F48.9 °F100 %30.00 in1.0 miCalmMist
6:59 AM50.0 °F50.0 °F100 %30.00 in2.0 miCalmMostly Cloudy
7:08 AM51.1 °F50.0 °F96 %30.00 in7.0 miCalmMostly Cloudy
7:16 AM51.1 °F51.1 °F100 %30.00 in10.0 miCalmScattered Clouds
11:52 AM73.9 °F55.9 °F53 %29.99 in10.0 miVariable4.6 mphPartly Cloudy
12:52 PM75.0 °F52.0 °F44 %29.98 in10.0 miVariable5.8 mphScattered Clouds
1:52 PM75.9 °F52.0 °F43 %29.98 in10.0 miVariable5.8 mphClear
2:52 PM78.1 °F53.1 °F42 %29.97 in10.0 miVariable4.6 mphClear
3:52 PM79.0 °F53.1 °F40 %29.95 in10.0 miVariable4.6 mphScattered Clouds
4:52 PM79.0 °F50.0 °F36 %29.93 in10.0 miNNW (330°)6.9 mphMostly Cloudy
5:52 PM79.0 °F52.0 °F39 %29.91 in10.0 miWest (270°)3.5 mphPartly Cloudy
6:52 PM78.1 °F53.1 °F42 %29.91 in10.0 miCalmClear
7:52 PM72.0 °F55.9 °F57 %29.92 in10.0 miCalmClear
8:52 PM64.0 °F57.0 °F78 %29.94 in10.0 miCalmClear
9:52 PM60.1 °F55.9 °F86 %29.97 in10.0 miCalmClear
10:52 PM60.1 °F55.9 °F86 %29.99 in10.0 miCalmMostly Cloudy
11:52 PM57.9 °F55.0 °F90 %29.98 in10.0 miCalmClear
Hourly data recorded from KAQW, located miles away from Jacksonville, Vermont







STORIES FROM OUR PARTNERS